Location: Gairloch Mountain Observatory
(46.1383°N, 60.9640°W)
Time: 21:26:17
(UTC-03:00)

CENTAUR R/B - Visible Passes

Search period start: 23 September 2014 00:00
Search period end: 03 October 2014 00:00
Orbit: 898 x 1291 km, 63.5° (Epoch: 05 August)

Date Brightness Start Highest point End Pass type
(mag) Time Alt. Az. Time Alt. Az. Time Alt. Az.
23 Sep 3.9 02:42:15 33° ENE 02:42:15 33° ENE 02:46:34 10° NE visible
23 Sep 2.9 04:29:27 43° WNW 04:30:51 50° NW 04:37:41 10° NE visible
23 Sep 4.3 06:18:12 10° WNW 06:23:20 22° NNW 06:28:50 10° NE visible
24 Sep 4.7 01:55:47 17° ENE 01:55:47 17° ENE 01:57:48 10° ENE visible
24 Sep 2.6 03:42:58 71° NNW 03:42:58 71° NNW 03:49:31 10° NE visible
24 Sep 4.0 05:30:10 15° WNW 05:34:28 26° NNW 05:40:24 10° NNE visible
25 Sep 3.4 02:56:28 46° NE 02:56:28 46° NE 03:01:18 10° NE visible
25 Sep 3.6 04:43:40 28° WNW 04:45:44 34° NNW 04:52:08 10° NNE visible
26 Sep 4.3 02:09:57 26° ENE 02:09:57 26° ENE 02:12:56 10° NE visible
26 Sep 3.1 03:57:08 46° NW 03:57:11 46° NW 04:03:57 10° NNE visible
26 Sep 4.4 05:44:44 10° WNW 05:49:48 21° NNW 05:55:12 10° NE visible
27 Sep 5.0 01:23:24 13° ENE 01:23:24 13° ENE 01:24:16 10° NE visible
27 Sep 3.3 03:10:35 49° NNE 03:10:35 49° NNE 03:15:48 10° NE visible
27 Sep 4.1 04:57:46 18° WNW 05:00:54 25° NNW 05:06:43 10° NNE visible
28 Sep 4.1 02:24:01 32° NE 02:24:01 32° NE 02:27:36 10° NE visible
28 Sep 3.7 04:11:12 30° NW 04:12:08 31° NNW 04:18:25 10° NNE visible
28 Sep 4.6 06:00:22 10° NW 06:05:15 20° N 06:10:27 10° NE visible
29 Sep 4.8 01:37:26 19° NE 01:37:26 19° NE 01:39:16 10° NE visible
29 Sep 3.6 03:24:37 39° NNW 03:24:37 39° NNW 03:30:13 10° NNE visible
29 Sep 4.5 05:11:48 12° NW 05:16:15 21° N 05:21:36 10° NE visible
30 Sep 4.0 02:38:01 35° NNE 02:38:01 35° NNE 02:42:04 10° NE visible
30 Sep 4.2 04:25:12 21° NW 04:27:20 24° NNW 04:33:02 10° NNE visible
30 Sep 4.7 06:15:38 10° NW 06:20:45 20° N 06:26:11 10° NE visible
01 Oct 4.6 01:51:24 23° NE 01:51:24 23° NE 01:53:53 10° NE visible
01 Oct 3.9 03:38:35 30° NNW 03:38:35 30° NNW 03:44:42 10° NNE visible
01 Oct 4.7 05:26:50 10° NW 05:31:44 20° N 05:36:56 10° NE visible
02 Oct 5.1 01:04:47 14° NE 01:04:47 14° NE 01:05:35 10° NE visible
02 Oct 4.0 02:51:58 32° N 02:51:58 32° N 02:56:30 10° NNE visible
02 Oct 4.5 04:39:09 14° NW 04:42:44 20° N 04:48:00 10° NE visible
02 Oct 4.7 06:30:28 10° NNW 06:36:10 24° NNE 06:42:13 10° ENE visible
